Temperature
29 29 29 29 29 29 29 30 30 30 30 30 30 29 28 27 26 25 24 23 22 22 22 21 21 21 21 21 20 20 20 20 20 20 19 19 19 18 18 18 18 18 18 17
27 28 28 28 29 29 29 30 30 30 30 30 29 28 27 26 26 25 24 23 22 22 21 21 21 21 21 20 20 20 20 20 20 19 19 19 18 18 18 18 18 18 17 17
27 28 27 27 28 29 29 29 30 29 30 29 29 28 27 26 25 25 24 23 22 21 21 21 21 21 21 20 20 20 20 20 20 19 19 19 18 18 18 18 18 18 17 17
27 26 25 28 29 29 29 29 29 29 29 29 28 27 26 25 25 24 24 23 22 21 21 21 20 21 20 20 20 20 19 19 20 19 19 19 18 18 18 18 18 18 17 17
26 26 26 27 27 28 28 28 29 28 28 27 26 26 26 24 24 23 23 22 22 21 21 20 20 20 20 20 20 20 19 19 19 19 19 18 18 18 18 18 18 17 17 17
25 25 25 27 27 26 27 26 27 27 27 26 26 27 27 24 23 23 22 22 21 21 20 20 20 20 20 20 19 19 19 19 19 19 18 18 18 18 17 17 17 17 17 17
24 25 26 26 26 25 25 26 25 25 25 25 25 26 24 23 22 22 21 21 21 20 20 20 20 20 20 19 19 19 19 19 18 18 18 18 18 18 17 17 17 16 16 16
24 24 25 25 25 25 24 23 23 24 24 24 23 23 22 22 21 21 21 21 21 20 20 20 20 19 19 19 19 19 19 19 18 18 18 18 18 18 17 17 16 16 16 16
24 24 23 23 23 22 21 22 22 22 22 22 22 22 21 21 21 21 20 20 20 20 20 20 19 19 19 19 19 18 18 18 18 18 18 17 17 17 17 16 16 16 16 16
22 23 22 21 21 21 21 21 21 21 21 21 21 21 20 20 20 20 20 20 19 19 19 19 19 19 19 19 18 18 18 18 18 17 17 17 17 16 16 16 16 16 16 16
21 22 21 21 20 20 20 20 20 20 20 20 20 20 20 19 19 19 19 19 19 19 19 19 19 18 18 18 17 17 17 17 17 17 17 17 16 16 16 16 16 15 15 15
22 21 21 20 20 19 19 19 19 19 19 19 19 19 19 19 19 18 18 18 18 18 18 18 18 18 17 17 17 17 17 17 16 16 16 16 16 16 16 15 15 15 15 15
19 19 19 19 18 18 18 18 18 18 18 18 18 18 18 18 18 18 18 18 18 18 17 17 17 17 17 17 16 16 16 16 16 16 16 16 16 16 15 15 15 15 15 15
17 17 18 18 18 18 18 18 18 18 17 17 17 17 17 17 17 17 17 17 17 17 17 17 17 17 16 16 16 16 16 16 16 15 15 15 15 15 15 15 15 15 15 15
17 17 17 17 17 17 17 17 17 17 17 17 17 17 17 17 16 16 16 16 16 16 16 16 16 16 16 16 16 15 15 15 15 15 15 15 15 15 15 15 14 14 14 14
16 16 16 16 16 17 17 17 17 17 17 17 16 16 16 16 16 16 16 15 15 16 16 16 16 16 16 15 15 15 15 15 15 15 15 15 15 14 14 14 14 14 14 14
16 16 16 16 16 16 16 16 16 16 16 16 16 16 15 15 15 15 15 15 15 15 15 15 15 15 15 15 15 15 15 14 14 14 14 14 14 14 14 14 14 14 13 13
15 16 16 16 15 15 15 15 15 15 15 15 15 15 15 15 15 15 15 15 15 15 15 15 15 15 15 15 14 14 14 14 14 14 14 14 14 14 14 14 13 13 13 13
15 15 15 15 15 15 15 15 15 15 14 14 14 14 14 14 14 14 14 14 14 14 14 14 15 15 14 14 14 14 14 13 14 13 13 13 13 13 13 13 13 13 13 12
14 14 14 14 14 14 14 14 14 14 14 14 14 14 14 14 14 14 14 14 14 14 14 14 14 13 13 14 14 13 13 13 13 13 13 13 13 13 13 13 13 13 12 12
13 13 14 14 13 13 13 13 13 13 13 13 13 13 13 13 13 13 13 13 14 14 13 13 13 13 13 13 13 13 13 13 13 12 12 12 12 12 12 12 12 12 12 12
13 13 13 13 13 13 13 13 13 13 13 13 13 13 13 13 13 13 13 13 13 13 13 13 13 13 13 13 13 13 12 12 12 12 12 12 12 12 12 12 12 12 11 11
12 12 12 12 12 12 12 13 13 12 12 13 13 13 13 13 13 13 13 13 13 13 13 12 13 13 13 12 12 12 12 12 12 12 12 12 12 12 12 11 11 11 11 11
11 11 12 12 12 12 12 12 12 12 12 12 12 12 12 12 12 12 12 12 12 12 12 12 12 12 12 12 12 12 12 12 12 12 12 12 12 11 11 11 11 11 11 11
11 11 11 12 12 12 12 12 12 12 12 12 12 12 12 12 12 12 12 12 12 12 12 12 12 12 11 11 12 12 12 12 12 12 11 11 11 11 11 11 11 10 10 10
11 11 12 11 11 11 11 12 12 12 12 12 12 12 11 11 11 11 11 11 11 11 11 11 11 11 11 11 11 11 11 11 11 11 11 11 11 11 11 11 10 10 10 10
11 11 11 11 11 11 11 11 11 11 11 11 11 11 11 11 11 11 11 11 11 11 11 11 11 11 11 11 11 11 11 11 11 11 11 10 10 10 10 10 10 10 10 10
Wind_Speed
8 6 8 11 12 13 14 13 12 10 10 7 4 3 3 5 6 7 8 8 8 7 7 7 7 7 7 7 7 7 8 8 7 7 7 6 6 6 6 5 5 5 4 4
10 8 9 12 13 14 14 13 13 11 10 5 4 3 4 5 6 7 7 7 7 7 7 7 7 7 7 7 7 7 8 7 7 7 7 7 7 7 7 6 6 5 5 5
12 10 10 15 15 15 14 13 13 13 9 5 5 5 5 6 6 6 6 7 7 7 7 7 7 7 7 7 7 8 8 7 7 7 7 8 8 8 8 7 7 6 6 6
11 10 15 10 6 10 13 13 12 10 7 6 6 5 4 4 5 6 6 6 6 6 7 6 6 6 6 6 7 7 7 7 7 7 7 7 8 8 8 8 7 7 7 6
11 14 13 8 7 9 10 11 10 10 8 6 5 5 5 3 4 4 5 5 6 6 7 6 6 6 6 6 7 7 7 6 6 7 7 7 7 8 7 7 7 7 7 7
12 14 14 8 6 5 7 11 7 8 7 6 6 8 4 2 3 3 4 4 5 6 6 6 6 6 7 7 6 6 6 6 6 6 7 7 6 6 6 7 7 7 6 7
14 14 11 4 5 7 10 5 3 5 5 6 6 5 1 1 1 3 4 4 5 5 6 6 6 6 7 6 6 6 5 5 5 6 6 7 6 6 6 6 6 6 6 6
12 14 10 5 7 7 2 1 2 3 3 4 4 3 2 2 1 2 3 4 5 5 5 6 6 6 6 6 5 5 6 6 6 6 6 5 6 6 6 6 6 7 6 6
7 6 1 2 2 1 1 2 2 2 3 3 4 4 3 3 2 2 2 3 4 5 5 5 6 6 6 6 5 6 6 6 6 6 6 6 6 7 7 7 7 7 7 6
5 5 4 3 3 3 2 3 3 3 4 4 4 5 4 4 3 3 3 3 4 5 5 6 6 7 6 6 6 6 7 7 7 6 6 6 6 7 7 7 7 7 7 6
8 6 4 4 3 3 3 3 4 4 5 5 5 6 5 5 4 4 4 3 4 5 6 7 7 7 7 6 7 7 8 7 7 7 7 6 6 5 7 5 5 6 6 6
6 4 5 4 3 3 3 4 5 5 6 6 6 6 6 6 5 5 5 4 5 6 6 7 7 7 7 8 8 8 8 8 7 6 6 6 6 5 2 3 4 3 2 4
6 5 5 5 5 5 5 5 6 6 7 7 7 7 7 6 6 6 6 6 6 6 6 6 7 7 7 8 9 9 8 7 7 6 6 7 7 6 5 3 3 5 5 4
5 6 7 7 6 6 6 6 6 7 7 7 7 7 6 6 6 7 7 7 6 6 6 7 7 7 7 8 8 9 9 8 7 7 6 6 7 7 6 6 5 5 5 7
7 7 8 7 7 7 7 7 7 7 7 7 7 7 7 7 7 7 7 6 6 6 7 7 7 7 7 8 9 10 9 7 7 6 6 6 6 6 6 7 6 5 5 5
7 7 7 8 8 8 8 9 9 9 8 8 8 8 8 7 7 7 7 6 7 7 7 7 8 7 7 8 8 8 7 8 7 7 7 7 7 7 7 7 7 6 6 6
8 8 8 9 9 9 9 9 9 8 8 8 8 8 7 7 7 8 8 7 7 7 7 8 8 7 7 7 7 6 6 6 7 7 7 7 7 8 7 7 7 6 6 6
10 9 9 9 9 9 9 9 8 8 7 7 7 7 7 8 8 8 7 7 6 7 8 7 7 6 7 7 7 6 6 7 7 7 6 7 7 7 7 7 7 7 6 6
9 8 8 8 8 8 9 8 8 8 7 7 8 8 8 8 8 8 7 7 7 8 7 6 6 7 7 7 7 6 7 7 7 7 7 7 7 7 7 7 7 7 7 6
6 6 6 6 6 7 7 7 7 7 7 7 7 7 8 8 8 8 7 7 7 6 5 5 6 7 7 7 7 7 7 7 7 7 7 7 7 7 7 7 7 7 7 7
5 5 6 5 5 5 6 6 6 6 7 7 7 8 7 8 7 7 7 6 5 5 5 5 6 6 6 6 7 7 7 7 7 7 7 7 7 7 6 6 6 6 6 6
5 5 6 5 5 5 5 5 5 6 6 6 6 6 6 7 7 6 6 5 4 3 4 5 5 4 5 6 6 7 7 7 7 6 6 6 6 6 6 6 6 6 6 6
5 5 6 6 5 5 5 5 5 5 6 6 5 5 5 5 5 4 5 3 3 2 3 3 3 3 4 6 6 7 7 7 7 7 6 6 5 5 5 6 5 5 5 5
5 5 5 5 5 4 5 5 4 4 5 5 4 4 4 4 4 4 3 2 3 3 4 3 3 4 6 6 6 6 6 6 6 6 6 5 5 5 5 5 5 6 6 6
6 5 5 5 4 4 4 4 4 4 4 3 3 3 3 3 3 4 3 3 3 3 3 3 5 6 6 5 5 5 5 5 5 5 5 5 5 5 5 5 5 5 5 6
6 5 5 5 4 4 4 3 3 3 3 3 3 3 3 3 3 3 3 3 3 3 3 3 3 4 4 4 4 4 4 4 5 5 5 5 5 5 5 5 6 5 5 5
5 5 4 4 4 4 3 3 3 3 3 3 3 3 4 4 4 4 3 3 3 2 2 2 2 2 2 2 3 3 3 3 4 4 4 4 4 4 5 5 5 5 5 6
Wind_Direction
244 245 228 224 220 218 229 242 249 250 247 243 236 227 198 185 181 174 174 174 172 173 173 175 176 179 184 184 182 184 187 190 192 193 191 193 194 195 196 197 197 195 199 202
228 228 231 234 229 227 231 238 244 249 249 247 233 213 190 185 184 181 181 180 177 175 175 181 182 183 183 184 183 184 190 191 191 193 192 194 197 195 194 196 196 193 200 206
229 220 229 234 229 227 231 235 240 242 242 225 224 215 211 199 194 193 189 182 180 179 180 185 184 184 185 182 183 188 192 192 193 197 201 201 200 197 197 194 192 195 201 204
229 215 233 235 220 228 233 237 238 245 237 229 232 223 217 213 202 200 196 189 186 185 181 181 180 179 181 175 180 185 191 194 196 199 206 205 203 201 200 197 195 198 202 203
227 228 235 223 215 218 227 235 231 232 229 222 219 219 208 207 204 203 200 192 187 187 181 175 176 175 174 176 180 185 191 196 199 201 203 204 208 205 202 201 202 204 203 204
226 234 234 218 185 211 233 236 219 221 221 216 219 234 213 184 198 198 197 190 184 183 179 172 172 171 175 179 183 188 190 194 194 198 205 207 208 206 200 203 208 210 208 210
228 234 239 205 175 192 224 233 182 215 223 223 228 264 307 342 206 198 195 191 185 184 182 179 175 176 184 186 193 195 194 194 194 196 202 205 200 199 201 204 209 212 211 213
224 231 228 164 190 215 263 36 201 226 242 244 246 252 248 276 263 212 199 197 191 189 190 184 183 188 195 199 199 195 193 197 199 201 208 200 195 197 201 200 205 206 207 214
227 233 150 164 219 257 285 252 256 262 271 262 251 249 264 272 271 249 226 211 202 200 197 193 197 202 208 208 199 197 198 200 203 204 208 206 201 200 201 205 214 213 209 211
229 221 223 226 234 245 252 257 268 279 287 278 265 265 271 275 271 262 250 228 215 211 210 209 211 215 218 209 203 203 207 208 206 205 208 207 207 210 210 212 217 219 217 215
229 228 232 227 236 245 257 273 279 284 286 282 279 277 274 272 267 260 259 245 232 227 225 223 218 217 218 210 206 209 213 214 213 214 210 207 212 219 222 222 223 218 226 222
240 229 247 236 244 256 259 268 282 287 285 281 277 276 275 273 262 255 257 251 244 241 237 234 227 222 218 213 210 211 215 218 220 218 208 212 209 212 185 214 158 177 229 242
266 266 269 265 268 268 267 271 274 276 277 281 279 276 273 270 262 256 254 249 247 246 242 236 231 229 223 216 214 214 217 220 223 221 215 215 213 213 212 204 169 182 196 199
263 261 257 256 262 268 270 272 271 269 268 269 272 269 266 266 263 257 256 255 251 247 242 237 232 231 227 220 216 214 218 213 214 214 217 219 219 219 219 215 211 215 206 191
254 254 259 264 263 265 266 264 264 264 265 266 267 266 263 263 263 262 261 257 248 243 242 241 237 235 225 218 218 215 217 216 211 214 216 219 222 225 225 221 221 217 204 187
265 262 258 260 263 265 262 261 262 263 263 265 268 266 264 264 265 263 258 250 243 244 245 242 239 233 222 216 216 216 215 212 209 213 218 216 217 220 223 221 221 222 219 206
264 261 261 261 264 264 263 264 263 264 265 267 270 270 269 265 264 261 258 251 248 250 245 240 240 233 221 214 212 217 218 209 204 215 221 220 219 220 221 222 223 222 222 213
265 269 272 270 267 266 265 264 264 265 266 268 271 270 267 265 270 270 264 260 257 253 249 244 238 230 220 216 215 217 217 216 213 216 220 223 221 220 219 220 221 221 219 205
269 268 270 269 265 262 262 263 266 268 270 269 268 267 268 270 270 268 263 252 247 246 249 245 234 228 223 216 212 214 218 217 214 215 217 213 217 220 220 221 223 224 220 213
281 278 274 270 266 266 267 266 262 262 265 265 265 266 268 269 270 269 262 255 248 249 247 242 231 229 224 216 211 213 215 216 216 215 214 217 217 216 219 222 222 222 219 219
295 291 289 283 276 274 276 276 270 266 266 264 264 266 268 272 272 269 264 260 257 250 243 231 226 225 222 210 207 216 217 217 216 216 215 216 218 220 223 225 225 222 221 221
315 312 307 299 291 286 283 282 280 276 274 270 269 272 275 274 272 268 263 264 261 248 241 240 233 217 210 209 216 220 218 217 217 216 216 217 219 221 222 223 220 215 215 217
318 319 319 314 307 298 291 287 286 286 284 281 279 279 278 283 282 277 277 277 267 267 262 256 244 197 204 220 222 220 219 216 216 217 218 217 215 216 213 212 208 208 209 209
326 326 323 313 308 304 300 301 301 295 290 283 278 279 280 282 285 284 284 272 253 256 266 250 203 202 216 225 226 223 220 216 215 215 214 213 211 208 203 199 200 204 205 206
322 319 315 313 308 303 299 298 298 295 290 287 289 292 289 293 300 310 307 292 282 259 265 237 204 205 217 228 223 223 221 214 210 210 211 211 210 206 199 196 199 205 206 205
307 302 307 306 305 301 298 297 298 303 306 315 322 327 329 326 318 309 295 285 287 284 276 264 238 219 222 223 222 220 214 206 205 208 210 210 207 202 192 190 194 206 210 208
296 291 287 295 300 299 302 307 309 310 316 317 322 331 334 334 332 328 323 315 308 292 276 266 249 228 219 213 210 210 209 205 200 201 203 204 201 198 195 196 202 205 205 203
Height
1484 1482 1482 1485 1487 1488 1489 1487 1490 1488 1488 1486 1488 1492 1495 1498 1500 1502 1505 1507 1508 1510 1512 1514 1516 1518 1520 1522 1523 1525 1526 1527 1529 1530 1531 1532 1532 1533 1533 1534 1535 1535 1535 1535
1489 1485 1484 1486 1484 1485 1486 1485 1486 1486 1487 1485 1489 1492 1495 1497 1499 1500 1503 1505 1507 1508 1510 1511 1513 1515 1517 1519 1521 1522 1523 1525 1526 1527 1528 1529 1529 1530 1531 1531 1532 1533 1533 1534
1489 1485 1488 1491 1482 1483 1483 1481 1482 1485 1484 1485 1488 1491 1494 1496 1498 1499 1501 1503 1505 1506 1508 1509 1511 1513 1515 1516 1518 1519 1521 1522 1523 1524 1525 1526 1527 1527 1528 1529 1529 1530 1531 1531
1487 1493 1503 1481 1475 1477 1479 1479 1479 1480 1482 1485 1488 1491 1494 1496 1497 1498 1500 1501 1503 1504 1506 1507 1509 1510 1512 1513 1515 1516 1518 1519 1519 1520 1521 1522 1523 1524 1525 1526 1526 1527 1528 1528
1487 1491 1486 1480 1478 1478 1480 1480 1478 1480 1483 1486 1488 1490 1492 1494 1495 1496 1498 1499 1501 1502 1504 1505 1506 1508 1509 1510 1512 1513 1514 1515 1516 1517 1518 1519 1520 1520 1521 1522 1523 1523 1524 1525
1487 1491 1490 1477 1475 1479 1481 1483 1479 1481 1483 1486 1487 1486 1487 1492 1493 1494 1496 1497 1499 1500 1502 1503 1504 1505 1506 1507 1509 1510 1511 1512 1513 1514 1515 1515 1516 1516 1517 1518 1519 1520 1521 1521
1485 1486 1476 1473 1476 1480 1487 1481 1480 1481 1483 1485 1486 1486 1489 1490 1491 1492 1493 1495 1496 1497 1499 1499 1500 1502 1503 1504 1505 1507 1508 1509 1510 1510 1511 1512 1513 1513 1514 1515 1516 1516 1517 1518
1482 1485 1481 1475 1477 1479 1480 1481 1482 1482 1484 1485 1486 1487 1488 1489 1489 1490 1491 1492 1493 1494 1495 1496 1497 1499 1500 1501 1502 1503 1504 1505 1506 1507 1508 1509 1509 1510 1510 1511 1512 1512 1513 1514
1475 1477 1476 1478 1479 1481 1482 1482 1482 1483 1484 1485 1485 1486 1486 1487 1488 1488 1489 1489 1490 1491 1492 1493 1494 1495 1496 1497 1499 1500 1501 1502 1503 1504 1504 1505 1505 1506 1507 1508 1508 1509 1510 1510
1476 1475 1478 1479 1480 1481 1482 1482 1483 1483 1484 1484 1484 1484 1484 1485 1485 1485 1486 1486 1487 1487 1488 1489 1490 1492 1493 1494 1495 1496 1497 1498 1499 1499 1500 1501 1502 1503 1504 1505 1506 1506 1506 1507
1475 1476 1478 1478 1480 1481 1481 1481 1481 1481 1482 1482 1482 1482 1482 1482 1482 1482 1483 1483 1483 1483 1484 1485 1486 1487 1489 1490 1491 1492 1493 1494 1495 1495 1496 1497 1498 1499 1500 1501 1502 1501 1502 1503
1471 1475 1476 1477 1479 1479 1480 1480 1480 1480 1479 1480 1480 1479 1479 1479 1478 1478 1479 1479 1479 1480 1480 1481 1482 1483 1484 1485 1486 1487 1488 1489 1491 1492 1492 1492 1493 1494 1494 1496 1496 1497 1497 1498
1475 1475 1476 1477 1477 1478 1478 1478 1478 1478 1477 1477 1477 1477 1476 1475 1475 1475 1475 1475 1475 1475 1475 1476 1477 1478 1479 1480 1481 1482 1483 1484 1486 1487 1487 1488 1489 1489 1490 1491 1491 1492 1493 1493
1474 1474 1474 1474 1475 1475 1475 1475 1475 1475 1474 1474 1473 1473 1472 1471 1471 1470 1470 1470 1470 1470 1471 1471 1471 1472 1474 1475 1476 1477 1478 1479 1480 1481 1483 1484 1484 1485 1486 1486 1487 1487 1488 1489
1472 1472 1472 1471 1471 1471 1471 1471 1471 1471 1471 1470 1470 1469 1468 1467 1466 1466 1466 1466 1466 1466 1466 1467 1467 1468 1468 1469 1471 1471 1473 1474 1475 1476 1477 1479 1480 1481 1481 1482 1483 1483 1483 1484
1468 1468 1468 1467 1467 1467 1468 1468 1467 1467 1466 1466 1465 1465 1464 1463 1462 1461 1461 1461 1461 1461 1461 1461 1461 1462 1463 1464 1466 1467 1468 1468 1470 1471 1473 1473 1474 1475 1477 1477 1478 1479 1479 1480
1465 1464 1464 1463 1463 1463 1463 1463 1463 1463 1462 1462 1461 1460 1460 1459 1458 1457 1456 1456 1456 1455 1456 1456 1456 1457 1458 1459 1460 1461 1462 1463 1464 1466 1467 1468 1470 1471 1471 1472 1473 1474 1475 1476
1461 1460 1460 1459 1459 1459 1458 1458 1458 1458 1458 1457 1457 1456 1455 1454 1453 1452 1451 1450 1450 1450 1450 1450 1451 1451 1452 1453 1455 1456 1457 1458 1459 1461 1463 1464 1465 1467 1467 1468 1468 1469 1470 1471
1457 1456 1456 1455 1455 1454 1454 1453 1453 1454 1453 1453 1452 1451 1450 1449 1448 1446 1445 1444 1443 1443 1444 1445 1445 1446 1447 1448 1450 1451 1453 1454 1455 1456 1458 1459 1459 1461 1462 1463 1464 1464 1465 1466
1453 1453 1452 1452 1451 1450 1449 1449 1449 1449 1449 1448 1447 1446 1445 1444 1443 1441 1440 1438 1438 1438 1439 1440 1441 1442 1443 1444 1446 1447 1448 1450 1451 1452 1453 1454 1455 1455 1456 1457 1458 1459 1460 1461
1451 1450 1449 1448 1448 1447 1446 1445 1445 1445 1444 1444 1443 1442 1441 1440 1438 1437 1436 1435 1434 1435 1435 1435 1436 1437 1439 1440 1441 1443 1444 1445 1446 1447 1448 1449 1450 1451 1451 1452 1453 1454 1455 1456
1448 1448 1447 1446 1445 1444 1443 1442 1442 1441 1440 1440 1439 1438 1437 1435 1434 1433 1432 1432 1431 1431 1431 1432 1432 1433 1434 1436 1437 1438 1439 1440 1442 1443 1443 1444 1445 1445 1446 1447 1448 1449 1450 1451
1447 1445 1444 1443 1441 1441 1440 1439 1439 1438 1437 1436 1436 1435 1434 1433 1432 1430 1429 1429 1428 1428 1428 1428 1428 1429 1430 1431 1433 1434 1434 1435 1437 1438 1439 1439 1440 1441 1441 1442 1443 1444 1445 1446
1445 1444 1442 1441 1439 1438 1438 1437 1436 1436 1435 1434 1433 1432 1431 1430 1429 1428 1427 1425 1425 1425 1425 1424 1424 1425 1426 1427 1428 1429 1430 1431 1432 1433 1434 1435 1436 1436 1437 1438 1439 1440 1441 1442
1444 1442 1441 1440 1438 1437 1437 1436 1435 1434 1433 1432 1431 1430 1429 1428 1427 1425 1424 1423 1422 1422 1421 1421 1421 1421 1422 1423 1424 1425 1426 1426 1427 1429 1430 1431 1432 1432 1433 1434 1435 1436 1437 1439
1443 1442 1441 1439 1438 1437 1436 1435 1433 1432 1432 1430 1429 1428 1427 1426 1424 1423 1422 1421 1420 1419 1419 1419 1419 1419 1419 1420 1421 1421 1422 1422 1423 1424 1426 1427 1428 1429 1429 1429 1430 1433 1434 1435
1441 1440 1439 1438 1437 1436 1434 1433 1432 1431 1430 1429 1428 1426 1425 1424 1423 1422 1420 1419 1418 1418 1417 1417 1417 1417 1417 1417 1418 1418 1419 1419 1420 1421 1422 1423 1424 1425 1426 1427 1428 1429 1431 1432